User: anonymous   Login
Location: Melara
(45.0500°N, 11.1833°E)
Time: 19:43:12
(UTC+00:00)
Language:

CAS-4B - Orbit

View from above orbital plane
View from above orbital plane
View from above satellite
View from above satellite

Ground track
Ground track

The orbit data is extracted from the following two-line orbital elements,

1 42759U 17034B   24141.52256962  .00026115  00000-0  96208-3 0  9994
2 42759  43.0209  22.8055 0011977 173.4803 186.6206 15.27281821383178
Epoch (UTC): 20 May 2024 12:32:30
Eccentricity: 0.0011977
inclination: 43.0209°
perigee height: 476 km
apogee height: 492 km
right ascension of ascending node: 22.8055°
argument of perigee: 173.4803°
revolutions per day: 15.27281821
mean anomaly at epoch: 186.6206°
orbit number at epoch: 38317

The dashed part of the orbit path shows where the satellite is in the earth's shadow,  

DLR